| time (UTC) | temp F | wind direction | speed knots | gust knots | rain 1hr in | rain 24hr in | rain mn in | humidity % | barometer mb |
| 20260507061025 | 52 | 13 | 0.0 | 0.0 | 0.00 | 0.00 | 0.00 | 86 | 1006.5 |
| 20260507060523 | 52 | 50 | 0.9 | 1.7 | 0.00 | 0.00 | 0.00 | 86 | 1006.5 |
| 20260507060020 | 52 | 133 | 0.0 | 0.9 | 0.00 | 0.00 | 0.00 | 85 | 1006.4 |
| 20260507055519 | 52 | 48 | 0.0 | 0.0 | 0.00 | 0.00 | 0.00 | 85 | 1006.5 |
| 20260507055016 | 52 | 16 | 0.0 | 2.6 | 0.00 | 0.00 | 0.00 | 85 | 1006.4 |
| 20260507054512 | 52 | 70 | 0.0 | 0.9 | 0.00 | 0.00 | 0.00 | 85 | 1006.6 |
| 20260507054009 | 53 | 30 | 0.0 | 0.9 | 0.00 | 0.00 | 0.00 | 84 | 1007.1 |
| 20260507053507 | 53 | 54 | 2.6 | 2.6 | 0.00 | 0.00 | 0.00 | 84 | 1007.1 |
| 20260507053006 | 53 | 141 | 0.0 | 1.7 | 0.00 | 0.00 | 0.00 | 84 | 1007.0 |
| 20260507052503 | 53 | 55 | 0.9 | 1.7 | 0.00 | 0.00 | 0.00 | 85 | 1007.2 |
| 20260507051959 | 53 | 59 | 0.9 | 1.7 | 0.00 | 0.00 | 0.00 | 86 | 1007.0 |
| 20260507051457 | 53 | 164 | 0.0 | 0.9 | 0.00 | 0.00 | 0.00 | 88 | 1006.6 |
| 20260507050954 | 53 | 130 | 0.0 | 1.7 | 0.00 | 0.00 | 0.00 | 88 | 1006.9 |
| 20260507050450 | 53 | 160 | 0.0 | 1.7 | 0.00 | 0.00 | 0.00 | 89 | 1007.3 |
| 20260507045947 | 53 | 156 | 0.0 | 0.9 | 0.00 | 0.00 | 0.00 | 90 | 1007.1 |
| 20260507045444 | 53 | 196 | 0.0 | 0.9 | 0.00 | 0.00 | 0.00 | 89 | 1007.0 |
| 20260507044941 | 54 | 77 | 0.0 | 0.9 | 0.00 | 0.00 | 0.00 | 88 | 1006.7 |
| 20260507044438 | 54 | 93 | 0.0 | 0.0 | 0.00 | 0.00 | 0.00 | 89 | 1006.5 |
| 20260507043934 | 54 | 101 | 0.9 | 0.9 | 0.00 | 0.00 | 0.00 | 88 | 1006.7 |
| 20260507043430 | 54 | 152 | 0.9 | 1.7 | 0.00 | 0.00 | 0.00 | 88 | 1006.9 |
| 20260507042926 | 54 | 223 | 0.9 | 1.7 | 0.00 | 0.00 | 0.00 | 90 | 1007.0 |
| 20260507042423 | 55 | 70 | 0.0 | 0.9 | 0.00 | 0.00 | 0.00 | 89 | 1006.6 |
| 20260507041919 | 55 | 91 | 1.7 | 2.6 | 0.00 | 0.00 | 0.00 | 90 | 1006.5 |
| 20260507041416 | 55 | 111 | 0.0 | 1.7 | 0.00 | 0.00 | 0.00 | 92 | 1006.7 |
| 20260507040913 | 55 | 54 | 0.9 | 0.9 | 0.00 | 0.00 | 0.00 | 93 | 1006.9 |
| 20260507040409 | 56 | 151 | 0.0 | 0.0 | 0.00 | 0.00 | 0.00 | 92 | 1007.0 |
| 20260507035905 | 56 | 172 | 0.0 | 0.9 | 0.07 | 0.13 | 0.13 | 92 | 1006.7 |
| 20260507035401 | 56 | 156 | 0.9 | 0.9 | 0.12 | 0.13 | 0.13 | 91 | 1006.7 |
| 20260507034858 | 57 | 205 | 0.0 | 0.9 | 0.05 | 0.12 | 0.12 | 89 | 1006.5 |
| 20260507034355 | 57 | 95 | 0.9 | 2.6 | 0.00 | 0.11 | 0.11 | 87 | 1006.5 |
| 20260507033853 | 57 | 170 | 0.0 | 2.6 | 0.00 | 0.11 | 0.11 | 86 | 1006.3 |
| 20260507033351 | 57 | 151 | 0.9 | 1.7 | 0.00 | 0.11 | 0.11 | 86 | 1006.1 |
| 20260507032848 | 58 | 135 | 0.9 | 1.7 | 0.00 | 0.11 | 0.11 | 85 | 1006.0 |
| 20260507032344 | 58 | 35 | 2.6 | 3.5 | 0.00 | 0.11 | 0.11 | 85 | 1006.1 |
| 20260507031840 | 58 | 158 | 0.0 | 2.6 | 0.00 | 0.11 | 0.11 | 85 | 1005.9 |
| 20260507031337 | 58 | 38 | 0.0 | 2.6 | 0.00 | 0.11 | 0.11 | 88 | 1005.9 |
| 20260507030834 | 59 | 204 | 0.9 | 2.6 | 0.00 | 0.11 | 0.11 | 90 | 1005.6 |
| 20260507030332 | 59 | 43 | 0.9 | 3.5 | 0.00 | 0.11 | 0.11 | 92 | 1005.7 |
| 20260507025828 | 60 | 181 | 0.9 | 1.7 | 0.00 | 0.11 | 0.11 | 95 | 1005.6 |
| 20260507025326 | 60 | 127 | 0.0 | 0.0 | 0.00 | 0.11 | 0.11 | 96 | 1005.8 |
| 20260507024823 | 60 | 199 | 0.0 | 0.9 | 0.00 | 0.11 | 0.11 | 96 | 1005.8 |
| 20260507024320 | 60 | 206 | 0.0 | 0.9 | 0.00 | 0.11 | 0.11 | 96 | 1005.6 |
| 20260507023816 | 60 | 206 | 1.7 | 2.6 | 0.00 | 0.11 | 0.11 | 96 | 1005.4 |
| 20260507023313 | 60 | 171 | 0.0 | 0.0 | 0.00 | 0.11 | 0.11 | 96 | 1005.5 |
| 20260507022810 | 60 | 171 | 0.0 | 1.7 | 0.00 | 0.11 | 0.11 | 95 | 1005.5 |
| 20260507022306 | 60 | 132 | 0.0 | 1.7 | 0.00 | 0.11 | 0.11 | 95 | 1005.6 |
| 20260507021803 | 60 | 182 | 0.9 | 1.7 | 0.00 | 0.11 | 0.11 | 95 | 1005.4 |
| 20260507021259 | 60 | 191 | 0.9 | 1.7 | 0.00 | 0.11 | 0.11 | 95 | 1005.2 |
| 20260507020757 | 60 | 200 | 0.9 | 1.7 | 0.00 | 0.11 | 0.11 | 95 | 1005.1 |
| 20260507020253 | 60 | 188 | 0.0 | 0.9 | 0.00 | 0.11 | 0.11 | 95 | 1005.1 |
| 20260507015751 | 60 | 216 | 0.0 | 0.0 | 0.00 | 0.11 | 0.11 | 95 | 1005.2 |
| 20260507015248 | 60 | 193 | 0.0 | 1.7 | 0.00 | 0.11 | 0.11 | 95 | 1005.2 |
| 20260507014744 | 60 | 208 | 0.0 | 0.9 | 0.00 | 0.11 | 0.11 | 95 | 1005.2 |
| 20260507014241 | 60 | 206 | 0.9 | 2.6 | 0.00 | 0.11 | 0.11 | 95 | 1005.3 |
| 20260507013737 | 60 | 189 | 0.9 | 2.6 | 0.00 | 0.11 | 0.11 | 95 | 1005.2 |
| 20260507013235 | 60 | 213 | 0.9 | 0.9 | 0.00 | 0.11 | 0.11 | 95 | 1005.1 |
| 20260507012732 | 60 | 205 | 0.9 | 1.7 | 0.00 | 0.11 | 0.11 | 95 | 1005.2 |
| 20260507012227 | 60 | 156 | 0.0 | 0.9 | 0.00 | 0.11 | 0.11 | 95 | 1005.2 |
| 20260507011725 | 60 | 184 | 0.0 | 1.7 | 0.00 | 0.11 | 0.11 | 95 | 1005.3 |
| 20260507011222 | 60 | 169 | 0.0 | 1.7 | 0.00 | 0.11 | 0.11 | 95 | 1005.4 |
| 20260507010721 | 60 | 194 | 0.0 | 0.9 | 0.00 | 0.11 | 0.11 | 95 | 1005.2 |
| 20260507010217 | 60 | 216 | 0.0 | 0.9 | 0.00 | 0.11 | 0.11 | 95 | 1005.4 |
| 20260507005715 | 60 | 204 | 0.0 | 1.7 | 0.00 | 0.11 | 0.11 | 95 | 1005.3 |
| 20260507005211 | 60 | 190 | 0.9 | 1.7 | 0.00 | 0.11 | 0.11 | 95 | 1005.1 |
| 20260507004708 | 60 | 185 | 0.9 | 1.7 | 0.00 | 0.11 | 0.11 | 95 | 1005.1 |
| 20260507004206 | 60 | 200 | 0.9 | 0.9 | 0.00 | 0.11 | 0.11 | 95 | 1005.1 |
| 20260507003702 | 60 | 170 | 0.9 | 2.6 | 0.00 | 0.11 | 0.11 | 95 | 1005.2 |
| 20260507003157 | 60 | 244 | 0.0 | 0.9 | 0.00 | 0.11 | 0.11 | 95 | 1005.1 |
| 20260507002653 | 60 | 309 | 0.0 | 2.6 | 0.00 | 0.11 | 0.11 | 95 | 1005.1 |
| 20260507002149 | 60 | 202 | 0.0 | 2.6 | 0.00 | 0.11 | 0.11 | 95 | 1005.0 |
| 20260507001646 | 60 | 197 | 0.9 | 1.7 | 0.00 | 0.11 | 0.11 | 95 | 1005.0 |
| 20260507001144 | 60 | 219 | 0.0 | 0.9 | 0.00 | 0.11 | 0.11 | 96 | 1005.2 |
| 20260507000640 | 60 | 183 | 0.9 | 0.9 | 0.00 | 0.11 | 0.11 | 96 | 1005.0 |
| 20260507000135 | 60 | 125 | 0.0 | 1.7 | 0.00 | 0.11 | 0.11 | 96 | 1005.0 |
| 20260506235633 | 60 | 166 | 0.9 | 1.7 | 0.00 | 0.11 | 0.11 | 96 | 1004.9 |
| 20260506235133 | 60 | 225 | 1.7 | 1.7 | 0.00 | 0.11 | 0.11 | 96 | 1005.0 |
| 20260506234631 | 60 | 234 | 0.0 | 1.7 | 0.00 | 0.11 | 0.11 | 96 | 1004.8 |
| 20260506234128 | 60 | 252 | 0.9 | 3.5 | 0.00 | 0.11 | 0.11 | 96 | 1004.8 |
| 20260506233625 | 60 | 173 | 0.0 | 1.7 | 0.00 | 0.11 | 0.11 | 96 | 1004.9 |
| 20260506233122 | 60 | 127 | 0.0 | 1.7 | 0.00 | 0.11 | 0.11 | 96 | 1004.8 |
| 20260506232617 | 60 | 214 | 0.0 | 0.9 | 0.00 | 0.11 | 0.11 | 96 | 1004.9 |
| 20260506232113 | 60 | 240 | 0.9 | 1.7 | 0.07 | 0.11 | 0.11 | 96 | 1004.8 |
| 20260506231611 | 60 | 211 | 0.9 | 2.6 | 0.07 | 0.11 | 0.11 | 96 | 1004.7 |
| 20260506231109 | 60 | 174 | 0.9 | 1.7 | 0.07 | 0.10 | 0.10 | 96 | 1005.0 |
| 20260506230605 | 60 | 206 | 0.9 | 1.7 | 0.12 | 0.10 | 0.10 | 95 | 1005.0 |
| 20260506225559 | 60 | 202 | 1.7 | 1.7 | 0.00 | 0.08 | 0.08 | 95 | 1005.0 |
| 20260506225055 | 60 | 224 | 0.0 | 1.7 | 0.07 | 0.08 | 0.08 | 95 | 1005.1 |
| 20260506224552 | 60 | 192 | 1.7 | 3.5 | 0.07 | 0.08 | 0.08 | 94 | 1005.2 |
| 20260506224049 | 60 | 176 | 0.0 | 5.2 | 0.05 | 0.07 | 0.07 | 94 | 1005.4 |
| 20260506223545 | 60 | 206 | 0.9 | 2.6 | 0.05 | 0.07 | 0.07 | 94 | 1005.2 |
| 20260506223041 | 60 | 198 | 0.9 | 2.6 | 0.05 | 0.07 | 0.07 | 94 | 1005.2 |
| 20260506222538 | 60 | 225 | 1.7 | 2.6 | 0.00 | 0.06 | 0.06 | 94 | 1005.1 |
| 20260506222034 | 60 | 267 | 1.7 | 2.6 | 0.00 | 0.06 | 0.06 | 94 | 1005.1 |
| 20260506221532 | 60 | 208 | 1.7 | 2.6 | 0.00 | 0.06 | 0.06 | 93 | 1005.2 |
| 20260506221030 | 60 | 204 | 2.6 | 3.5 | 0.00 | 0.06 | 0.06 | 93 | 1005.2 |
| 20260506220526 | 60 | 218 | 0.9 | 3.5 | 0.00 | 0.06 | 0.06 | 93 | 1005.3 |
| 20260506220021 | 60 | 214 | 3.5 | 5.2 | 0.00 | 0.06 | 0.06 | 93 | 1005.1 |
| 20260506215519 | 60 | 186 | 0.9 | 3.5 | 0.07 | 0.06 | 0.06 | 93 | 1005.2 |
| 20260506215014 | 61 | 19 | 0.9 | 2.6 | 0.07 | 0.06 | 0.06 | 93 | 1005.2 |
| 20260506214511 | 61 | 353 | 0.9 | 1.7 | 0.00 | 0.05 | 0.05 | 93 | 1005.5 |
| 20260506214008 | 61 | 199 | 1.7 | 2.6 | 0.00 | 0.05 | 0.05 | 92 | 1005.3 |
| 20260506213507 | 61 | 189 | 2.6 | 8.7 | 0.00 | 0.05 | 0.05 | 91 | 1005.3 |
| 20260506213003 | 61 | 263 | 1.7 | 3.5 | 0.00 | 0.05 | 0.05 | 91 | 1005.2 |
| 20260506212500 | 61 | 212 | 1.7 | 5.2 | 0.00 | 0.05 | 0.05 | 91 | 1005.1 |
| 20260506211954 | 61 | 183 | 1.7 | 2.6 | 0.00 | 0.05 | 0.05 | 92 | 1005.4 |
| 20260506211451 | 61 | 72 | 0.0 | 1.7 | 0.00 | 0.05 | 0.05 | 92 | 1005.4 |
| 20260506210948 | 61 | 160 | 0.9 | 2.6 | 0.05 | 0.05 | 0.05 | 92 | 1005.4 |
| 20260506210444 | 61 | 137 | 2.6 | 3.5 | 0.05 | 0.05 | 0.05 | 91 | 1005.7 |
| 20260506205942 | 61 | 206 | 2.6 | 3.5 | 0.00 | 0.04 | 0.04 | 91 | 1005.6 |
| 20260506205438 | 61 | 211 | 0.0 | 5.2 | 0.00 | 0.04 | 0.04 | 92 | 1005.6 |
| 20260506204934 | 62 | 182 | 2.6 | 5.2 | 0.07 | 0.04 | 0.04 | 92 | 1005.9 |
| 20260506204432 | 61 | 147 | 1.7 | 6.1 | 0.07 | 0.04 | 0.04 | 91 | 1005.8 |
| 20260506203929 | 62 | 177 | 2.6 | 3.5 | 0.00 | 0.03 | 0.03 | 91 | 1005.9 |
| 20260506203426 | 62 | 216 | 1.7 | 3.5 | 0.00 | 0.03 | 0.03 | 91 | 1006.0 |
| 20260506202923 | 62 | 128 | 2.6 | 6.1 | 0.00 | 0.03 | 0.03 | 90 | 1005.8 |
| 20260506202420 | 62 | 336 | 1.7 | 3.5 | 0.05 | 0.03 | 0.03 | 90 | 1005.9 |
| 20260506201916 | 62 | 223 | 0.9 | 3.5 | 0.00 | 0.02 | 0.02 | 89 | 1006.0 |
| 20260506201414 | 63 | 60 | 0.9 | 2.6 | 0.00 | 0.02 | 0.02 | 88 | 1006.0 |
| 20260506200911 | 63 | 172 | 1.7 | 1.7 | 0.00 | 0.02 | 0.02 | 88 | 1006.0 |
| 20260506200406 | 63 | 193 | 1.7 | 2.6 | 0.00 | 0.02 | 0.02 | 86 | 1006.1 |
| 20260506195903 | 64 | 182 | 0.9 | 1.7 | 0.00 | 0.02 | 0.02 | 85 | 1006.0 |
| 20260506195400 | 64 | 215 | 0.9 | 3.5 | 0.00 | 0.02 | 0.02 | 85 | 1005.9 |
| 20260506194857 | 64 | 183 | 2.6 | 3.5 | 0.00 | 0.02 | 0.02 | 85 | 1006.0 |
| 20260506194354 | 64 | 195 | 0.9 | 2.6 | 0.00 | 0.02 | 0.02 | 85 | 1006.0 |
| 20260506193851 | 64 | 64 | 0.9 | 1.7 | 0.00 | 0.02 | 0.02 | 85 | 1005.9 |
| 20260506193348 | 64 | 340 | 0.0 | 5.2 | 0.00 | 0.02 | 0.02 | 85 | 1006.1 |
| 20260506192844 | 64 | 196 | 2.6 | 7.0 | 0.00 | 0.02 | 0.02 | 85 | 1006.2 |
| 20260506192341 | 64 | 190 | 1.7 | 2.6 | 0.00 | 0.02 | 0.02 | 86 | 1005.9 |
| 20260506191838 | 64 | 200 | 0.9 | 3.5 | 0.00 | 0.02 | 0.02 | 86 | 1006.0 |
| 20260506191335 | 64 | 216 | 1.7 | 2.6 | 0.00 | 0.02 | 0.02 | 87 | 1005.8 |
| 20260506190832 | 64 | 242 | 0.9 | 2.6 | 0.07 | 0.02 | 0.02 | 87 | 1005.7 |
| 20260506190328 | 64 | 147 | 1.7 | 1.7 | 0.07 | 0.02 | 0.02 | 87 | 1005.9 |
| 20260506185825 | 64 | 201 | 0.0 | 1.7 | 0.00 | 0.01 | 0.01 | 87 | 1006.1 |
| 20260506185322 | 64 | 197 | 0.9 | 1.7 | 0.00 | 0.01 | 0.01 | 86 | 1006.1 |
| 20260506184819 | 64 | 198 | 1.7 | 2.6 | 0.05 | 0.01 | 0.01 | 84 | 1006.0 |
| 20260506184316 | 64 | 138 | 1.7 | 2.6 | 0.05 | 0.01 | 0.01 | 84 | 1006.2 |
| 20260506183813 | 65 | 200 | 0.9 | 2.6 | 0.00 | 0.00 | 0.00 | 84 | 1006.3 |
| 20260506183308 | 65 | 194 | 2.6 | 2.6 | 0.00 | 0.00 | 0.00 | 81 | 1006.3 |
| 20260506182806 | 66 | 173 | 2.6 | 2.6 | 0.00 | 0.00 | 0.00 | 79 | 1006.4 |
| 20260506182306 | 66 | 139 | 1.7 | 3.5 | 0.00 | 0.00 | 0.00 | 78 | 1006.6 |
| 20260506181801 | 68 | 167 | 1.7 | 2.6 | 0.00 | 0.00 | 0.00 | 75 | 1006.4 |
| 20260506181258 | 69 | 181 | 3.5 | 5.2 | 0.00 | 0.00 | 0.00 | 67 | 1006.5 |
| 20260506180755 | 70 | 162 | 1.7 | 7.0 | 0.00 | 0.00 | 0.00 | 64 | 1006.5 |
| 20260506180251 | 70 | 184 | 2.6 | 3.5 | 0.00 | 0.00 | 0.00 | 63 | 1006.5 |
| 20260506175747 | 71 | 197 | 5.2 | 7.0 | 0.00 | 0.00 | 0.00 | 60 | 1006.5 |
| 20260506175244 | 71 | 199 | 0.9 | 7.0 | 0.00 | 0.00 | 0.00 | 61 | 1006.5 |
| 20260506174742 | 71 | 205 | 1.7 | 6.1 | 0.00 | 0.00 | 0.00 | 58 | 1006.3 |
| 20260506174239 | 71 | 168 | 3.5 | 8.7 | 0.00 | 0.00 | 0.00 | 59 | 1006.4 |
| 20260506173737 | 71 | 167 | 3.5 | 7.0 | 0.00 | 0.00 | 0.00 | 60 | 1006.4 |
| 20260506173233 | 73 | 206 | 2.6 | 5.2 | 0.00 | 0.00 | 0.00 | 56 | 1006.4 |
| 20260506172730 | 73 | 345 | 0.9 | 7.8 | 0.00 | 0.00 | 0.00 | 53 | 1006.2 |
| 20260506172226 | 73 | 139 | 4.3 | 7.0 | 0.00 | 0.00 | 0.00 | 53 | 1006.0 |
| 20260506171724 | 73 | 164 | 3.5 | 5.2 | 0.00 | 0.00 | 0.00 | 53 | 1006.2 |
| 20260506171222 | 74 | 196 | 2.6 | 6.1 | 0.00 | 0.00 | 0.00 | 52 | 1006.0 |
| 20260506170719 | 74 | 266 | 3.5 | 6.1 | 0.00 | 0.00 | 0.00 | 51 | 1006.1 |
| 20260506170215 | 74 | 146 | 2.6 | 7.0 | 0.00 | 0.00 | 0.00 | 52 | 1006.5 |
| 20260506165714 | 74 | 202 | 0.9 | 2.6 | 0.00 | 0.00 | 0.00 | 53 | 1006.3 |
| 20260506165210 | 74 | 217 | 4.3 | 6.1 | 0.00 | 0.00 | 0.00 | 52 | 1006.6 |
| 20260506164708 | 73 | 190 | 2.6 | 5.2 | 0.00 | 0.00 | 0.00 | 54 | 1006.5 |
| 20260506164205 | 73 | 138 | 3.5 | 6.1 | 0.00 | 0.00 | 0.00 | 54 | 1006.7 |
| 20260506163701 | 73 | 204 | 5.2 | 7.8 | 0.00 | 0.00 | 0.00 | 54 | 1006.7 |
| 20260506163156 | 72 | 184 | 1.7 | 7.0 | 0.00 | 0.00 | 0.00 | 55 | 1007.0 |
| 20260506162652 | 72 | 192 | 3.5 | 6.1 | 0.00 | 0.00 | 0.00 | 57 | 1006.7 |
| 20260506162150 | 72 | 190 | 2.6 | 6.1 | 0.00 | 0.00 | 0.00 | 57 | 1006.9 |
| 20260506161647 | 72 | 227 | 3.5 | 3.5 | 0.00 | 0.00 | 0.00 | 57 | 1007.1 |
| 20260506161144 | 72 | 229 | 1.7 | 5.2 | 0.00 | 0.00 | 0.00 | 58 | 1007.4 |
| 20260506160642 | 72 | 177 | 2.6 | 7.0 | 0.00 | 0.00 | 0.00 | 58 | 1007.5 |
| 20260506160138 | 71 | 215 | 0.9 | 5.2 | 0.00 | 0.00 | 0.00 | 59 | 1007.5 |
| 20260506155637 | 71 | 158 | 2.6 | 5.2 | 0.00 | 0.00 | 0.00 | 59 | 1007.6 |
| 20260506155134 | 70 | 220 | 0.9 | 3.5 | 0.00 | 0.00 | 0.00 | 61 | 1008.2 |
| 20260506153236 | 70 | 189 | 2.6 | 5.2 | 0.00 | 0.00 | 0.00 | 61 | 1008.0 |
| 20260506152733 | 70 | 198 | 1.7 | 2.6 | 0.00 | 0.00 | 0.00 | 61 | 1008.1 |
| 20260506152230 | 70 | 152 | 1.7 | 3.5 | 0.00 | 0.00 | 0.00 | 61 | 1008.2 |
| 20260506151729 | 70 | 192 | 2.6 | 6.1 | 0.00 | 0.00 | 0.00 | 61 | 1008.2 |
| 20260506151225 | 70 | 34 | 3.5 | 7.0 | 0.00 | 0.00 | 0.00 | 61 | 1008.3 |
| 20260506150721 | 70 | 259 | 0.9 | 3.5 | 0.00 | 0.00 | 0.00 | 61 | 1008.3 |
| 20260506150218 | 70 | 166 | 1.7 | 7.0 | 0.00 | 0.00 | 0.00 | 60 | 1008.2 |
| 20260506145716 | 70 | 181 | 1.7 | 7.0 | 0.00 | 0.00 | 0.00 | 61 | 1008.4 |
| 20260506145212 | 71 | 220 | 4.3 | 6.1 | 0.00 | 0.00 | 0.00 | 61 | 1008.2 |
| 20260506144710 | 70 | 217 | 2.6 | 6.1 | 0.00 | 0.00 | 0.00 | 61 | 1008.4 |
| 20260506144206 | 70 | 263 | 1.7 | 5.2 | 0.00 | 0.00 | 0.00 | 62 | 1008.5 |
| 20260506143704 | 69 | 156 | 1.7 | 3.5 | 0.00 | 0.00 | 0.00 | 62 | 1008.4 |
| 20260506143202 | 70 | 236 | 1.7 | 3.5 | 0.00 | 0.00 | 0.00 | 62 | 1008.5 |
| 20260506142700 | 70 | 193 | 1.7 | 5.2 | 0.00 | 0.00 | 0.00 | 62 | 1008.4 |
| 20260506142158 | 69 | 271 | 0.9 | 3.5 | 0.00 | 0.00 | 0.00 | 63 | 1008.4 |
| 20260506141655 | 69 | 204 | 1.7 | 5.2 | 0.00 | 0.00 | 0.00 | 64 | 1008.3 |
| 20260506141153 | 69 | 313 | 1.7 | 6.1 | 0.00 | 0.00 | 0.00 | 64 | 1008.2 |
| 20260506140651 | 69 | 42 | 1.7 | 3.5 | 0.00 | 0.00 | 0.00 | 64 | 1008.1 |
| 20260506140148 | 69 | 189 | 0.9 | 1.7 | 0.00 | 0.00 | 0.00 | 65 | 1008.1 |
| 20260506135644 | 68 | 214 | 0.9 | 1.7 | 0.00 | 0.00 | 0.00 | 66 | 1008.2 |
| 20260506135141 | 68 | 194 | 0.9 | 5.2 | 0.00 | 0.00 | 0.00 | 66 | 1008.2 |
| 20260506134637 | 67 | 178 | 0.9 | 1.7 | 0.00 | 0.00 | 0.00 | 67 | 1008.3 |
| 20260506134133 | 67 | 189 | 1.7 | 3.5 | 0.00 | 0.00 | 0.00 | 67 | 1008.4 |
| 20260506133631 | 67 | 352 | 0.9 | 2.6 | 0.00 | 0.00 | 0.00 | 68 | 1008.5 |
| 20260506133127 | 67 | 174 | 0.9 | 2.6 | 0.00 | 0.00 | 0.00 | 68 | 1008.4 |
| 20260506132625 | 67 | 155 | 2.6 | 6.1 | 0.00 | 0.00 | 0.00 | 68 | 1008.5 |
| 20260506132122 | 67 | 158 | 3.5 | 5.2 | 0.00 | 0.00 | 0.00 | 68 | 1008.6 |
| 20260506131619 | 67 | 169 | 1.7 | 5.2 | 0.00 | 0.00 | 0.00 | 68 | 1008.7 |
| 20260506131115 | 66 | 251 | 1.7 | 5.2 | 0.00 | 0.00 | 0.00 | 69 | 1008.8 |
| 20260506130612 | 66 | 196 | 1.7 | 3.5 | 0.00 | 0.00 | 0.00 | 70 | 1009.1 |
| 20260506130110 | 66 | 197 | 0.9 | 5.2 | 0.00 | 0.00 | 0.00 | 70 | 1008.8 |
| 20260506125608 | 66 | 223 | 1.7 | 2.6 | 0.00 | 0.00 | 0.00 | 70 | 1008.7 |
| 20260506125105 | 65 | 198 | 3.5 | 5.2 | 0.00 | 0.00 | 0.00 | 70 | 1008.8 |
| 20260506124603 | 66 | 144 | 1.7 | 2.6 | 0.00 | 0.00 | 0.00 | 70 | 1009.0 |
| 20260506124100 | 66 | 169 | 1.7 | 5.2 | 0.00 | 0.00 | 0.00 | 70 | 1009.1 |
| 20260506123558 | 65 | 234 | 0.9 | 7.0 | 0.00 | 0.00 | 0.00 | 70 | 1008.9 |
| 20260506123057 | 66 | 226 | 1.7 | 2.6 | 0.00 | 0.00 | 0.00 | 70 | 1008.7 |
| 20260506122552 | 65 | 240 | 4.3 | 7.0 | 0.00 | 0.00 | 0.00 | 71 | 1008.7 |
| 20260506122051 | 65 | 200 | 0.9 | 5.2 | 0.00 | 0.00 | 0.00 | 72 | 1008.6 |
| 20260506121548 | 64 | 197 | 0.0 | 1.7 | 0.00 | 0.00 | 0.00 | 73 | 1009.0 |
| 20260506121044 | 64 | 161 | 2.6 | 5.2 | 0.00 | 0.00 | 0.00 | 73 | 1009.2 |
| 20260506120542 | 64 | 184 | 2.6 | 5.2 | 0.00 | 0.00 | 0.00 | 72 | 1008.8 |
| 20260506120039 | 64 | 212 | 1.7 | 3.5 | 0.00 | 0.00 | 0.00 | 72 | 1008.8 |
| 20260506115537 | 64 | 238 | 0.9 | 2.6 | 0.00 | 0.00 | 0.00 | 73 | 1009.0 |
| 20260506115036 | 63 | 183 | 1.7 | 3.5 | 0.00 | 0.00 | 0.00 | 74 | 1009.1 |
| 20260506114532 | 63 | 259 | 0.9 | 3.5 | 0.00 | 0.00 | 0.00 | 74 | 1009.1 |
| 20260506114031 | 63 | 187 | 1.7 | 2.6 | 0.00 | 0.00 | 0.00 | 75 | 1009.2 |
| 20260506113528 | 63 | 154 | 0.0 | 2.6 | 0.00 | 0.00 | 0.00 | 75 | 1009.1 |
| 20260506113025 | 63 | 136 | 1.7 | 2.6 | 0.00 | 0.00 | 0.00 | 75 | 1009.3 |
| 20260506112522 | 62 | 238 | 2.6 | 3.5 | 0.00 | 0.00 | 0.00 | 75 | 1009.2 |
| 20260506112019 | 62 | 35 | 1.7 | 7.0 | 0.00 | 0.00 | 0.00 | 75 | 1009.5 |
| 20260506111518 | 62 | 184 | 0.9 | 5.2 | 0.00 | 0.00 | 0.00 | 75 | 1009.4 |
| 20260506111014 | 62 | 205 | 0.9 | 1.7 | 0.00 | 0.00 | 0.00 | 75 | 1009.2 |
| 20260506110512 | 62 | 193 | 2.6 | 2.6 | 0.00 | 0.00 | 0.00 | 75 | 1009.3 |
| 20260506110009 | 62 | 159 | 0.9 | 1.7 | 0.00 | 0.00 | 0.00 | 75 | 1009.1 |
| 20260506105504 | 62 | 224 | 2.6 | 5.2 | 0.00 | 0.00 | 0.00 | 75 | 1009.3 |
| 20260506105002 | 62 | 180 | 1.7 | 3.5 | 0.00 | 0.00 | 0.00 | 76 | 1009.3 |
| 20260506104500 | 61 | 208 | 1.7 | 2.6 | 0.00 | 0.00 | 0.00 | 76 | 1009.3 |
| 20260506103958 | 61 | 200 | 0.9 | 3.5 | 0.00 | 0.00 | 0.00 | 77 | 1009.3 |
| 20260506103455 | 61 | 198 | 0.9 | 2.6 | 0.00 | 0.00 | 0.00 | 76 | 1009.5 |
| 20260506102951 | 61 | 177 | 0.9 | 1.7 | 0.00 | 0.00 | 0.00 | 76 | 1009.2 |
| 20260506102450 | 61 | 324 | 0.0 | 6.1 | 0.00 | 0.00 | 0.00 | 76 | 1009.3 |
| 20260506101947 | 61 | 156 | 1.7 | 2.6 | 0.00 | 0.00 | 0.00 | 76 | 1009.0 |
| 20260506101443 | 61 | 187 | 0.9 | 3.5 | 0.00 | 0.00 | 0.00 | 76 | 1009.0 |
| 20260506100940 | 61 | 174 | 0.9 | 2.6 | 0.00 | 0.00 | 0.00 | 76 | 1009.3 |
| 20260506100439 | 61 | 198 | 0.9 | 1.7 | 0.00 | 0.00 | 0.00 | 76 | 1009.3 |
| 20260506095936 | 61 | 199 | 0.9 | 0.9 | 0.00 | 0.00 | 0.00 | 76 | 1009.1 |
| 20260506095435 | 61 | 209 | 0.9 | 2.6 | 0.00 | 0.00 | 0.00 | 75 | 1009.2 |
| 20260506094930 | 61 | 255 | 0.9 | 2.6 | 0.00 | 0.00 | 0.00 | 75 | 1008.9 |
| 20260506094430 | 61 | 273 | 0.0 | 6.1 | 0.00 | 0.00 | 0.00 | 75 | 1009.0 |
| 20260506093926 | 61 | 203 | 0.9 | 2.6 | 0.00 | 0.00 | 0.00 | 75 | 1008.9 |
| 20260506093424 | 61 | 168 | 1.7 | 2.6 | 0.00 | 0.00 | 0.00 | 75 | 1009.0 |
| 20260506092922 | 61 | 220 | 0.0 | 6.1 | 0.00 | 0.00 | 0.00 | 74 | 1008.9 |
| 20260506092420 | 61 | 78 | 1.7 | 2.6 | 0.00 | 0.00 | 0.00 | 74 | 1008.9 |
| 20260506091916 | 61 | 214 | 0.9 | 3.5 | 0.00 | 0.00 | 0.00 | 74 | 1009.0 |
| 20260506091414 | 62 | 222 | 0.9 | 3.5 | 0.00 | 0.00 | 0.00 | 74 | 1009.1 |
| 20260506090911 | 62 | 210 | 2.6 | 5.2 | 0.00 | 0.00 | 0.00 | 74 | 1009.0 |
| 20260506090409 | 62 | 217 | 0.9 | 2.6 | 0.00 | 0.00 | 0.00 | 74 | 1009.1 |
| 20260506085905 | 62 | 202 | 1.7 | 3.5 | 0.00 | 0.00 | 0.00 | 74 | 1008.8 |
| 20260506085402 | 62 | 214 | 0.9 | 2.6 | 0.00 | 0.00 | 0.00 | 73 | 1009.0 |
| 20260506084858 | 62 | 172 | 0.9 | 2.6 | 0.00 | 0.00 | 0.00 | 73 | 1008.9 |
| 20260506084355 | 62 | 350 | 0.9 | 1.7 | 0.00 | 0.00 | 0.00 | 73 | 1008.9 |
| 20260506083851 | 62 | 197 | 1.7 | 3.5 | 0.00 | 0.00 | 0.00 | 73 | 1008.9 |
| 20260506083349 | 62 | 247 | 1.7 | 2.6 | 0.00 | 0.00 | 0.00 | 72 | 1008.9 |
| 20260506082846 | 62 | 2 | 0.9 | 3.5 | 0.00 | 0.00 | 0.00 | 72 | 1009.0 |
| 20260506082343 | 62 | 209 | 0.9 | 2.6 | 0.00 | 0.00 | 0.00 | 72 | 1008.8 |
| 20260506081839 | 62 | 201 | 1.7 | 2.6 | 0.00 | 0.00 | 0.00 | 71 | 1009.1 |
| 20260506081337 | 63 | 215 | 1.7 | 2.6 | 0.00 | 0.00 | 0.00 | 71 | 1008.9 |
| 20260506080834 | 63 | 178 | 0.9 | 2.6 | 0.00 | 0.00 | 0.00 | 71 | 1009.0 |
| 20260506080331 | 63 | 153 | 1.7 | 3.5 | 0.00 | 0.00 | 0.00 | 71 | 1009.1 |
| 20260506073315 | 63 | 242 | 0.0 | 0.9 | 0.00 | 0.00 | 0.00 | 69 | 1008.9 |
| 20260506072812 | 64 | 331 | 1.7 | 3.5 | 0.00 | 0.00 | 0.00 | 68 | 1008.9 |
| 20260506072310 | 64 | 202 | 2.6 | 3.5 | 0.00 | 0.00 | 0.00 | 67 | 1008.8 |
| 20260506071807 | 64 | 53 | 0.9 | 3.5 | 0.00 | 0.00 | 0.00 | 67 | 1008.6 |
| 20260506071305 | 64 | 213 | 0.0 | 1.7 | 0.00 | 0.00 | 0.00 | 67 | 1008.7 |
| 20260506070802 | 64 | 216 | 0.0 | 1.7 | 0.00 | 0.00 | 0.00 | 67 | 1008.7 |
| 20260506070259 | 64 | 158 | 1.7 | 3.5 | 0.00 | 0.00 | 0.00 | 66 | 1008.7 |
| 20260506062236 | 65 | 196 | 0.9 | 1.7 | 0.00 | 0.00 | 0.00 | 63 | 1008.6 |
| 20260506061731 | 65 | 221 | 2.6 | 3.5 | 0.00 | 0.00 | 0.00 | 63 | 1008.6 |